Create Custom Reports and Graphics: Custom Report

Belmont 8000'

Squaw Valley

3/29/20 2:15 PM (-07:00)
Updated Every 15 Minutes
Temp 29.2 °F   1.7
RH 82 %   5
Dew Pt 24.3 °F   0.2
Wet Bulb 27.2 °F   1.1
Wind Dir WSW | 238 °
Wind Spd 7.5 mph   2.8
Wind Gust 12.6 mph   4.7
WindChill 21.1 °F   5.4
Daily Min Temp 22.4 °F   4.1
Daily Max Temp 32.9 °F   1.4
Latest Rain 0.00 In
Daily Rain 0.14 In
New Snow 1.5 in
SnowDepth 114.7 in

Last 24 Hours

Squaw-Belmont 8000'

Hourly Data | America/Los_Angeles
as of 3/29/20 2:20 PM PDT
Date & Time Temp (°F) RH (%) Dew Pt (°F) Wet Bulb (°F) Wind Dir (°) Wind Spd (mph) Wind Gust (mph) WindChill (°F) Latest Rain (In) New Snow (in) SnowDepth (in) Daily Min Temp (°F) Daily Max Temp (°F) Daily Rain (In)
3/29/20 - 1400 28.5 86 24.8 26.9 SW | 234 8.0 15.2 21.5 0.00 1.5 114.7 22.4 32.9 0.14
3/29/20 - 1300 29.8 81 24.6 27.6 SW | 225 8.4 13.8 22.5 0.00 1.7 115.0 22.4 32.9 0.14
3/29/20 - 1200 31.3 76 24.7 28.6 SW | 220 6.8 11.4 23.2 0.01 1.8 115.4 22.4 32.9 0.14
3/29/20 - 1100 26.6 88 23.6 25.4 SW | 230 6.4 14.9 19.7 0.00 1.7 115.7 22.4 27.7 0.13
3/29/20 - 1000 26.1 88 23.2 25.0 SSW | 212 8.5 14.8 17.8 0.02 1.6 115.8 22.4 27.7 0.13
3/29/20 - 0900 24.6 93 22.9 24.0 SSW | 206 10.5 16.5 14.2 0.01 1.6 115.3 22.4 25.7 0.11
3/29/20 - 0800 23.4 95 22.3 23.0 SSW | 200 9.5 16.9 13.4 0.01 1.7 115.6 22.4 23.7 0.10
3/29/20 - 0700 23.0 96 22.0 22.6 SSW | 209 5.7 12.6 16.4 0.03 1.3 115.3 22.4 23.0 0.09
3/29/20 - 0600 22.7 98 22.3 22.5 S | 187 3.9 8.6 18.4 0.00 1.1 115.0 22.4 23.0 0.06
3/29/20 - 0500 22.6 96 21.7 22.3 SSW | 196 5.8 14.0 15.9 0.02 1.1 115.2 22.6 23.0 0.06
3/29/20 - 0400 22.7 97 22.1 22.5 SSW | 196 7.2 17.5 14.5 0.01 1.0 115.2 22.6 23.0 0.04
3/29/20 - 0300 22.7 98 22.2 22.5 SSW | 202 7.6 18.9 14.7 0.00 0.8 115.0 22.7 23.0 0.03
3/29/20 - 0200 22.9 97 22.3 22.7 SSW | 211 7.5 16.3 14.7 0.02 0.8 115.1 22.8 23.0 0.03
3/29/20 - 0100 23.0 96 21.9 22.6 SSW | 212 8.2 15.3 13.8 0.01 0.7 115.1 22.8 23.0 0.01
3/29/20 - 0000 22.9 95 21.7 22.5 SW | 214 9.8 16.7 12.8 0.02 0.6 115.0 18.3 31.5 0.10
3/28/20 - 2300 23.0 96 21.9 22.6 SSW | 210 10.1 21.4 13.2 0.01 0.6 115.0 18.3 31.5 0.08
3/28/20 - 2200 23.6 95 22.4 23.1 SSW | 199 6.1 17.7 17.4 0.01 0.4 115.0 18.3 31.5 0.07
3/28/20 - 2100 23.8 96 22.7 23.4 SSW | 192 5.6 15.7 17.4 0.01 0.4 115.0 18.3 31.5 0.06
3/28/20 - 2000 23.8 96 22.7 23.3 S | 188 5.2 13.3 18.4 0.01 0.2 115.1 18.3 31.5 0.05
3/28/20 - 1900 24.7 95 23.4 24.2 S | 188 5.1 17.0 20.0 0.02 0.1 114.8 18.3 31.5 0.04
3/28/20 - 1800 25.4 92 23.3 24.6 SSW | 206 6.8 15.7 19.3 0.02 0.0 114.6 18.3 31.5 0.02
3/28/20 - 1700 26.9 89 24.0 25.7 SW | 216 8.0 18.0 20.0 0.00 0.0 114.5 18.3 31.5 0.00
3/28/20 - 1600 28.6 84 24.2 26.9 SSW | 203 5.7 14.5 24.3 0.00 0.0 114.4 18.3 31.5 0.00
3/28/20 - 1500 30.3 79 24.5 27.9 SSW | 202 5.7 13.3 25.4 0.00 0.0 114.5 18.3 31.5 0.00
3/28/20 - 1400 30.9 75 24.0 28.1 SSW | 196 5.0 11.8 26.0 0.00 0.0 114.5 18.3 31.5 0.00
Max 31.3 98 24.8 28.6 - 10.5 21.4 26.0 0.03 1.8 115.8 22.8 32.9 0.14
Avg 25.3 91 23.0 24.4 - 7.1 15.3 18.2 0.01 0.8 115.0 - - -
Min 22.6 75 21.7 22.3 - 3.9 8.6 12.8 0.00 0.0 114.4 18.3 23.0 0.00
Total - - - - - - - - 0.24 - - - - -

Last 30 Days

Squaw-Belmont 8000'

Daily Data | America/Los_Angeles
as of 3/29/20 2:20 PM PDT
Date Daily Max Temp (°F) Max Temp Time Daily Min Temp (°F) Min Temp Time Daily Rain (In) Seasonal Rainfall (In) New Snow (in) SnowDepth (in) Wind Spd (mph) Daily Max Wind (mph) Max Wind Time Max Wind Dir (°) Max RH (%) Min RH (%) Wet Bulb (°F) WetB Hrs <28F (hrs) Bat Volt Min Day (V)
3/28/20 31.5 1255 18.3 0201 0.10 87.60 0.6 115.0 6.6 21.4 2242 WSW | 252 97 60 22.6 23.4 12.9
3/27/20 27.6 1206 9.9 0237 0.00 87.50 0.0 115.8 7.3 22.8 1502 SSW | 212 96 67 17.4 24.0 13.0
3/26/20 25.3 1306 8.6 0503 0.02 87.50 0.0 117.8 3.1 15.4 1805 N | 2 96 83 14.4 24.0 13.0
3/25/20 23.0 1206 12.0 2359 0.72 87.40 7.9 120.4 8.7 31.7 0013 SSE | 162 98 93 16.9 24.0 13.0
3/24/20 24.9 1006 18.8 2358 0.69 86.70 6.0 103.4 12.9 44.1 1729 S | 182 100 93 22.3 24.0 13.0
3/23/20 29.3 0936 23.2 0001 0.37 86.00 0.0 140.0 11.5 48.6 1936 SE | 131 100 77 25.7 23.3 13.0
3/22/20 35.9 1243 20.6 0321 0.00 85.60 0.0 113.6 3.3 14.2 1808 SW | 234 100 53 25.5 16.2 13.0
3/21/20 32.2 1318 21.9 0351 0.00 85.60 0.0 116.5 3.9 14.6 1210 E | 80 100 74 25.6 16.6 13.0
3/20/20 27.7 1431 14.5 0515 0.00 85.60 0.0 119.2 3.1 12.8 1249 E | 89 100 97 21.9 24.0 13.0
3/19/20 28.7 1442 12.5 0718 0.01 85.60 0.0 111.4 2.2 8.9 1208 ESE | 119 100 96 20.0 23.3 13.0
3/18/20 26.6 1410 13.5 2159 0.40 85.60 1.5 116.5 8.2 30.6 0420 WSW | 247 99 96 18.5 24.0 13.0
3/17/20 21.1 1411 12.8 0721 0.17 85.20 8.6 115.7 11.6 25.6 1322 SW | 219 98 96 16.8 24.0 13.0
3/16/20 28.2 1159 19.0 2357 1.72 85.10 11.0 140.0 6.4 30.8 0503 S | 170 100 98 22.9 23.7 13.0
3/15/20 23.8 1021 18.7 2133 1.73 83.30 36.9 140.0 12.4 45.2 0619 SSE | 155 99 98 21.2 24.0 13.1
3/14/20 26.8 0001 19.6 2152 1.47 81.60 13.8 110.7 12.1 45.3 1252 SSE | 150 100 97 22.5 24.0 13.1
3/13/20 41.0 1244 26.8 2359 0.03 80.10 0.0 63.5 9.1 50.5 2129 SW | 222 100 33 28.2 9.9 12.9
3/12/20 42.5 1509 32.0 0610 0.00 80.10 0.0 83.4 6.0 19.6 1327 ESE | 119 75 31 30.8 3.3 12.9
3/11/20 45.3 1235 27.8 0648 0.00 80.10 0.0 84.4 2.7 11.7 2346 SE | 138 95 50 32.2 5.0 12.8
3/10/20 38.4 1610 25.6 0519 0.00 80.10 0.0 85.5 4.1 18.2 1156 ESE | 104 92 50 28.9 9.7 12.9
3/9/20 37.8 1244 22.2 0657 0.05 80.10 0.0 86.2 5.4 23.8 0226 S | 188 96 43 26.1 17.0 13.0
3/8/20 32.9 1235 22.4 0528 0.07 80.10 0.0 87.2 7.0 20.9 0038 SSE | 153 99 68 24.4 22.0 13.0
3/7/20 33.2 0029 22.4 1831 0.41 80.00 0.0 86.9 13.3 40.2 0929 SSE | 148 98 61 24.6 21.9 13.0
3/6/20 44.6 1146 32.7 2324 0.00 79.59 0.0 82.9 14.4 37.7 2236 SSW | 213 76 37 30.9 2.9 12.9
3/5/20 46.6 1208 36.2 0435 0.00 79.59 0.0 83.2 10.2 31.5 2345 SSW | 205 70 22 33.0 0.0 12.9
3/4/20 49.1 1208 32.6 0146 0.00 79.59 0.0 83.8 3.1 15.1 1616 WSW | 254 71 24 31.3 4.2 12.9
3/3/20 43.9 1349 26.2 0416 0.00 79.59 0.0 84.8 3.5 15.5 0036 ESE | 123 90 44 30.1 8.4 12.9
3/2/20 28.5 1835 13.1 0317 0.00 79.59 0.0 86.6 11.2 32.3 1641 NNE | 32 84 33 18.6 24.0 13.1
3/1/20 21.7 0029 14.0 2354 0.59 79.59 0.0 93.2 8.6 29.3 1709 NNE | 24 96 73 15.6 24.0 13.1
2/29/20 36.7 1145 21.5 2351 0.10 79.00 0.4 86.1 12.0 37.6 1014 SSW | 209 94 33 26.3 15.2 13.0
2/28/20 44.7 1228 32.6 2240 0.00 78.90 0.0 84.4 8.1 29.2 1935 W | 259 79 15 30.1 4.3 12.9
Max 49.1 - 36.2 - 1.73 - 36.9 140.0 14.4 50.5 - - 100 98 33.0 24.0 13.1
Avg - - - - - - 2.9 101.9 7.7 - - - - - 24.2 - -
Min 21.1 - 8.6 - 0.00 - 0.0 63.5 2.2 8.9 - - 70 15 14.4 0.0 12.8
Calm: 0.0%
Calm: 0.0%